DW3823 Weather Reports


time (UTC)temp
F
wind
direction
speed
knots
gust
knots
rain 1hr
in
rain 24hr
in
rain mn
in
humidity
%
barometer
mb
20260504214511 77 181 1.7 9.6 0.00 0.00 0.00 45 1011.0
20260504214110 77 317 3.5 8.7 0.00 0.00 0.00 43 1011.1
20260504213511 77 211 1.7 7.0 0.00 0.00 0.00 44 1011.0
20260504213009 77 184 3.5 10.4 0.00 0.00 0.00 44 1011.1
20260504212510 77 171 3.5 10.4 0.00 0.00 0.00 45 1011.1
20260504212009 77 157 2.6 10.4 0.00 0.00 0.00 44 1011.0
20260504211510 78 173 2.6 7.8 0.00 0.00 0.00 46 1011.2
20260504211008 78 144 2.6 11.3 0.00 0.00 0.00 45 1011.2
20260504210507 78 218 1.7 11.3 0.00 0.00 0.00 45 1011.4
20260504210012 78 238 2.6 7.0 0.00 0.00 0.00 44 1011.3
20260504205506 78 207 1.7 9.6 0.00 0.00 0.00 46 1011.4
20260504205005 78 221 3.5 7.8 0.00 0.00 0.00 43 1011.5
20260504204508 78 197 1.7 7.8 0.00 0.00 0.00 46 1011.5
20260504204004 78 151 4.3 14.8 0.00 0.00 0.00 48 1011.6
20260504203504 77 236 3.5 14.8 0.00 0.00 0.00 48 1011.7
20260504203003 77 196 1.7 8.7 0.00 0.00 0.00 47 1011.8
20260504202502 77 158 2.6 7.8 0.00 0.00 0.00 47 1011.8
20260504202000 78 239 3.5 7.8 0.00 0.00 0.00 45 1011.9
20260504201500 78 199 2.6 8.7 0.00 0.00 0.00 44 1012.1
20260504201059 78 232 2.6 8.7 0.00 0.00 0.00 47 1012.1
20260504200559 78 265 3.5 9.6 0.00 0.00 0.00 45 1012.2
20260504200103 77 242 2.6 9.6 0.00 0.00 0.00 49 1012.2
20260504195558 76 250 3.5 10.4 0.00 0.00 0.00 49 1012.5
20260504195058 77 167 2.6 7.8 0.00 0.00 0.00 45 1012.4
20260504194605 77 234 2.6 8.7 0.00 0.00 0.00 47 1012.5
20260504194059 77 161 0.9 11.3 0.00 0.00 0.00 47 1012.2
20260504193559 78 164 2.6 11.3 0.00 0.00 0.00 50 1012.5
20260504193100 78 332 2.6 12.2 0.00 0.00 0.00 47 1012.5
20260504192555 77 151 4.3 12.2 0.00 0.00 0.00 47 1012.6
20260504192055 78 150 1.7 6.1 0.00 0.00 0.00 49 1012.6
20260504191609 77 221 0.9 10.4 0.00 0.00 0.00 56 1012.8
20260504191052 78 267 3.5 10.4 0.00 0.00 0.00 48 1012.8
20260504190554 78 157 2.6 7.8 0.00 0.00 0.00 51 1012.8
20260504190051 77 237 2.6 8.7 0.00 0.00 0.00 52 1013.0
20260504185549 77 277 3.5 8.7 0.00 0.00 0.00 49 1012.9
20260504185052 76 222 2.6 6.1 0.00 0.00 0.00 52 1013.0
20260504184549 76 160 1.7 7.8 0.00 0.00 0.00 48 1013.1
20260504184047 77 182 3.5 7.8 0.00 0.00 0.00 49 1013.2
20260504183546 76 335 2.6 11.3 0.00 0.00 0.00 50 1013.3
20260504183046 76 281 2.6 7.0 0.00 0.00 0.00 50 1013.3
20260504182548 76 165 3.5 7.0 0.00 0.00 0.00 49 1013.4
20260504182045 76 192 2.6 9.6 0.00 0.00 0.00 49 1013.4
20260504181548 76 37 2.6 9.6 0.00 0.00 0.00 53 1013.5
20260504181044 75 187 1.7 7.8 0.00 0.00 0.00 53 1013.4
20260504180543 76 280 2.6 8.7 0.00 0.00 0.00 52 1013.4
20260504180043 76 237 4.3 8.7 0.00 0.00 0.00 53 1013.6
20260504175543 76 184 1.7 10.4 0.00 0.00 0.00 53 1013.5
20260504175040 75 144 2.6 10.4 0.00 0.00 0.00 49 1013.5
20260504174539 75 169 2.6 7.0 0.00 0.00 0.00 51 1013.6
20260504174039 75 351 1.7 7.8 0.00 0.00 0.00 50 1013.6
20260504173537 75 153 2.6 12.2 0.00 0.00 0.00 51 1013.7
20260504173036 75 140 1.7 8.7 0.00 0.00 0.00 53 1013.7
20260504172538 74 194 4.3 10.4 0.00 0.00 0.00 51 1013.9
20260504172037 74 229 3.5 7.8 0.00 0.00 0.00 52 1013.9
20260504171545 74 101 2.6 7.8 0.00 0.00 0.00 52 1014.0
20260504171034 74 153 2.6 7.0 0.00 0.00 0.00 52 1014.0
20260504170534 74 196 2.6 12.2 0.00 0.00 0.00 54 1014.0
20260504151013 68 154 3.5 11.3 0.00 0.00 0.00 56 1015.3
20260504150507 68 191 3.5 11.3 0.00 0.00 0.00 57 1015.4
20260504141054 64 273 4.3 8.7 0.00 0.00 0.00 57 1015.7
20260504140554 64 265 1.7 10.4 0.00 0.00 0.00 59 1015.9
20260504130538 58 160 0.9 9.6 0.00 0.00 0.00 62 1016.1
20260504110507 52 220 1.7 4.3 0.00 0.00 0.00 66 1015.1
20260504100502 53 225 0.9 3.5 0.00 0.00 0.00 64 1015.3
20260504090112 52 213 0.9 3.5 0.00 0.01 0.00 65 1015.6
20260504081554 51 126 0.0 2.6 0.00 0.01 0.00 68 1015.6
20260504081053 51 138 0.0 2.6 0.00 0.01 0.00 68 1015.7
20260504080552 51 138 0.9 3.5 0.00 0.01 0.00 68 1015.6
20260504050533 52 232 0.9 1.7 0.00 0.01 0.00 66 1017.0
20260504045531 53 232 0.9 3.5 0.00 0.01 0.01 65 1016.9
20260504045031 53 227 0.0 2.6 0.00 0.01 0.01 65 1016.9
20260504044531 52 225 0.0 2.6 0.00 0.01 0.01 65 1016.9
20260504044031 53 225 0.0 6.1 0.00 0.01 0.01 65 1016.9
20260504043532 53 223 0.0 6.1 0.00 0.01 0.01 64 1017.0
20260504043042 53 232 0.0 1.7 0.00 0.01 0.01 63 1016.8
20260504042531 53 232 0.0 2.6 0.00 0.01 0.01 63 1016.9
20260504042030 53 232 0.0 2.6 0.00 0.01 0.01 62 1016.8
20260504041535 54 227 0.9 4.3 0.00 0.01 0.01 62 1016.9
20260504041030 53 220 0.9 4.3 0.00 0.01 0.01 62 1016.9
20260504040532 53 269 0.0 2.6 0.00 0.01 0.01 62 1017.1
20260504040030 53 234 0.9 2.6 0.00 0.01 0.01 62 1016.8
20260504035530 53 237 0.0 1.7 0.00 0.01 0.01 63 1016.7
20260504035030 53 237 0.9 3.5 0.00 0.01 0.01 62 1016.8
20260504034530 53 236 0.0 2.6 0.00 0.01 0.01 62 1016.9
20260504034030 53 235 0.0 3.5 0.00 0.01 0.01 63 1017.0
20260504033529 53 239 0.0 2.6 0.00 0.01 0.01 63 1017.0
20260504033031 53 240 0.0 1.7 0.00 0.01 0.01 64 1017.0
20260504032530 53 240 0.0 1.7 0.00 0.01 0.01 64 1017.1
20260504032029 53 236 0.0 2.6 0.00 0.01 0.01 64 1017.2
20260504031529 53 236 0.9 2.6 0.00 0.01 0.01 63 1017.3
20260504031028 53 243 0.0 1.7 0.00 0.01 0.01 63 1017.4
20260504030528 53 243 0.0 1.7 0.00 0.01 0.01 62 1017.4
20260504030030 53 243 0.0 2.6 0.00 0.01 0.01 65 1017.4
20260504025528 53 242 0.0 2.6 0.00 0.01 0.01 62 1017.2
20260504025028 53 234 0.0 2.6 0.00 0.01 0.01 65 1017.2
20260504024528 52 232 0.0 0.0 0.00 0.01 0.01 65 1017.2
20260504024027 52 232 0.0 0.0 0.00 0.01 0.01 65 1017.1
20260504023527 52 232 0.0 0.0 0.00 0.01 0.01 64 1017.1
20260504023028 53 232 0.0 0.0 0.00 0.01 0.01 64 1017.0
20260504022527 52 231 0.0 0.0 0.00 0.01 0.01 63 1016.9
20260504022026 52 231 0.0 0.0 0.00 0.01 0.01 64 1016.9
20260504021526 52 231 0.0 0.0 0.00 0.01 0.01 65 1017.0
20260504021026 53 231 0.0 0.0 0.00 0.01 0.01 63 1017.0
20260504020526 53 231 0.0 0.0 0.00 0.01 0.01 62 1016.8
20260504020027 53 231 0.0 0.0 0.00 0.01 0.01 62 1016.8
20260504015626 53 231 0.0 0.0 0.00 0.01 0.01 62 1016.7
20260504015028 52 231 0.0 0.0 0.00 0.01 0.01 65 1016.7
20260504014536 52 231 0.0 0.0 0.00 0.01 0.01 65 1016.7
20260504014025 53 231 0.0 0.9 0.00 0.01 0.01 65 1016.6
20260504013525 54 231 0.0 1.7 0.00 0.01 0.01 60 1016.4
20260504013025 55 231 0.0 1.7 0.00 0.01 0.01 58 1016.2
20260504012526 54 231 0.0 0.9 0.00 0.01 0.01 59 1016.2
20260504012024 53 231 0.0 0.0 0.00 0.01 0.01 63 1016.3
20260504011526 53 231 0.0 0.0 0.00 0.01 0.01 63 1016.4
20260504011024 55 231 0.0 0.9 0.00 0.01 0.01 59 1016.4
20260504010523 55 231 0.0 0.9 0.00 0.01 0.01 58 1016.2
20260504010026 55 231 0.0 0.9 0.00 0.01 0.01 58 1016.4
20260504005524 55 231 0.0 1.7 0.00 0.04 0.01 56 1016.4
20260504005028 57 231 0.0 3.5 0.00 0.04 0.01 55 1016.4
20260504004524 57 238 0.0 2.6 0.00 0.04 0.01 53 1016.4
20260504004024 57 272 0.0 1.7 0.00 0.04 0.01 54 1016.4
20260504003522 57 275 0.0 1.7 0.00 0.04 0.01 53 1016.4
20260504003030 58 275 0.9 3.5 0.00 0.04 0.01 50 1016.4
20260504002522 59 204 0.0 2.6 0.00 0.04 0.01 49 1016.3
20260504002022 59 205 0.0 2.6 0.00 0.04 0.01 48 1016.5
20260504001521 59 203 0.0 2.6 0.00 0.04 0.01 47 1016.5
20260504001021 59 209 0.9 2.6 0.00 0.04 0.01 46 1016.7
20260504000519 60 216 0.9 1.7 0.00 0.04 0.01 47 1016.8
20260504000018 60 206 0.9 4.3 0.00 0.04 0.01 46 1016.9
20260503235517 60 169 0.0 4.3 0.00 0.05 0.01 46 1017.0
20260503235018 60 166 1.7 2.6 0.00 0.05 0.01 45 1017.1
20260503234517 60 158 0.0 2.6 0.00 0.05 0.01 44 1017.2
20260503234017 60 155 0.0 2.6 0.00 0.05 0.01 44 1017.2
20260503233517 61 110 0.9 2.6 0.00 0.05 0.01 43 1017.2
20260503233015 61 229 0.9 5.2 0.00 0.05 0.01 44 1017.2
20260503232516 62 188 1.7 5.2 0.00 0.05 0.01 41 1017.2
20260503232015 62 234 1.7 6.1 0.00 0.05 0.01 41 1017.2
20260503231517 62 304 0.0 3.5 0.00 0.05 0.01 40 1017.3
20260503231016 62 219 0.0 5.2 0.00 0.05 0.01 39 1017.3
20260503230517 63 274 0.9 5.2 0.00 0.05 0.01 40 1017.3
20260503230017 63 202 0.9 5.2 0.00 0.05 0.01 38 1017.2
20260503225515 63 289 1.7 5.2 0.00 0.05 0.01 38 1017.3
20260503225016 63 182 1.7 5.2 0.00 0.05 0.01 40 1017.4
20260503224516 63 283 0.9 5.2 0.00 0.05 0.01 41 1017.4
20260503224011 63 244 1.7 7.8 0.00 0.05 0.01 37 1017.5
20260503223514 64 174 1.7 7.8 0.00 0.05 0.01 37 1017.5
20260503223011 64 251 1.7 4.3 0.00 0.05 0.01 37 1017.6
20260503222511 64 17 1.7 6.1 0.00 0.05 0.01 41 1017.5
20260503222009 64 315 2.6 6.1 0.00 0.05 0.01 39 1017.7
20260503221511 64 266 2.6 7.0 0.00 0.05 0.01 37 1017.8
20260503221011 64 166 1.7 7.0 0.00 0.05 0.01 38 1017.8
20260503220509 64 165 2.6 8.7 0.00 0.05 0.01 40 1017.9
20260503220008 64 270 1.7 7.0 0.00 0.05 0.01 40 1017.8
20260503215510 64 219 1.7 7.0 0.00 0.05 0.01 39 1017.8
20260503215009 64 224 1.7 6.1 0.00 0.05 0.01 39 1018.0